Tiempo cada hora Alloza

Hoy, 3 Agosto, Martes

Tiempo Temperatura Precipitaciones Viento Presión Humedad
00:00 +20°C° 0 mm 2 mps 703 mmHg 64%
01:00 +21°C° 0 mm 1 mps 703 mmHg 66%
02:00 +20°C° 0 mm 1 mps 703 mmHg 68%
03:00 +19°C° 0 mm 1 mps 703 mmHg 70%
04:00 +20°C° 0 mm 1 mps 703 mmHg 69%
05:00 +20°C° 0 mm 1 mps 703 mmHg 68%
06:00 +20°C° 0 mm 1 mps 703 mmHg 68%
07:00 +21°C° 0 mm 1 mps 704 mmHg 61%
08:00 +23°C° 0 mm 1 mps 704 mmHg 54%
09:00 +25°C° 0 mm 1 mps 704 mmHg 48%
10:00 +26°C° 0 mm 1 mps 704 mmHg 42%
11:00 +28°C° 0 mm 2 mps 704 mmHg 37%
12:00 +29°C° 0 mm 2 mps 703 mmHg 32%
13:00 +30°C° 0 mm 3 mps 703 mmHg 30%
14:00 +32°C° 0 mm 4 mps 702 mmHg 28%
15:00 +33°C° 0 mm 4 mps 702 mmHg 26%
16:00 +32°C° 0 mm 4 mps 701 mmHg 28%
17:00 +32°C° 0 mm 4 mps 701 mmHg 30%
18:00 +30°C° 0 mm 4 mps 701 mmHg 32%
19:00 +29°C° 0 mm 4 mps 701 mmHg 36%
20:00 +27°C° 0 mm 3 mps 701 mmHg 39%
21:00 +26°C° 0 mm 3 mps 701 mmHg 42%
22:00 +25°C° 0 mm 3 mps 701 mmHg 44%
23:00 +25°C° 0 mm 4 mps 701 mmHg 46%

Mañana, 4 Agosto, Miércoles

Tiempo Temperatura Precipitaciones Viento Presión Humedad
00:00 +23°C° 0 mm 4 mps 701 mmHg 48%
01:00 +22°C° 0 mm 4 mps 701 mmHg 52%
02:00 +21°C° 0 mm 5 mps 701 mmHg 55%
03:00 +20°C° 0 mm 5 mps 701 mmHg 59%
04:00 +20°C° 0 mm 4 mps 701 mmHg 60%
05:00 +20°C° 0 mm 3 mps 701 mmHg 62%
06:00 +20°C° 0 mm 2 mps 702 mmHg 64%
07:00 +21°C° 0 mm 3 mps 702 mmHg 61%
08:00 +21°C° 0 mm 4 mps 702 mmHg 59%
09:00 +22°C° 0 mm 5 mps 703 mmHg 56%
10:00 +23°C° 0 mm 5 mps 703 mmHg 53%
11:00 +24°C° 0 mm 6 mps 703 mmHg 49%
12:00 +26°C° 0 mm 6 mps 703 mmHg 45%
13:00 +26°C° 0 mm 7 mps 703 mmHg 43%
14:00 +27°C° 0 mm 7 mps 703 mmHg 41%
15:00 +27°C° 0 mm 7 mps 703 mmHg 38%
16:00 +27°C° 0 mm 7 mps 703 mmHg 40%
17:00 +26°C° 0 mm 7 mps 703 mmHg 42%
18:00 +26°C° 0 mm 6 mps 703 mmHg 44%
19:00 +23°C° 0 mm 5 mps 704 mmHg 47%
20:00 +22°C° 0 mm 4 mps 704 mmHg 51%
21:00 +21°C° 0 mm 2 mps 704 mmHg 54%
22:00 +20°C° 0 mm 2 mps 704 mmHg 57%
23:00 +19°C° 0 mm 2 mps 704 mmHg 59%

Pasado mañana, 5 Agosto, Jueves

Tiempo Temperatura Precipitaciones Viento Presión Humedad
00:00 +19°C° 0 mm 2 mps 704 mmHg 62%
01:00 +18°C° 0 mm 2 mps 704 mmHg 63%
02:00 +18°C° 0 mm 2 mps 703 mmHg 65%
03:00 +18°C° 0 mm 2 mps 703 mmHg 67%
04:00 +19°C° 0 mm 1 mps 703 mmHg 66%
05:00 +19°C° 0 mm 1 mps 703 mmHg 66%
06:00 +20°C° 0 mm 1 mps 703 mmHg 65%
07:00 +21°C° 0 mm 1 mps 703 mmHg 58%
08:00 +23°C° 0 mm 1 mps 703 mmHg 52%
09:00 +25°C° 0 mm 2 mps 703 mmHg 45%
10:00 +27°C° 0 mm 2 mps 703 mmHg 39%
11:00 +29°C° 0 mm 3 mps 703 mmHg 34%
12:00 +32°C° 0 mm 4 mps 703 mmHg 28%
13:00 +33°C° 0 mm 4 mps 703 mmHg 26%
14:00 +34°C° 0 mm 4 mps 702 mmHg 24%
15:00 +35°C° 0 mm 4 mps 702 mmHg 22%
16:00 +34°C° 0 mm 4 mps 701 mmHg 23%
17:00 +34°C° 0 mm 4 mps 701 mmHg 24%
18:00 +33°C° 0 mm 4 mps 701 mmHg 25%
19:00 +30°C° 0 mm 3 mps 701 mmHg 31%
20:00 +29°C° 0 mm 2 mps 701 mmHg 37%
21:00 +27°C° 0 mm 2 mps 700 mmHg 43%
22:00 +26°C° 0 mm 2 mps 700 mmHg 43%
23:00 +26°C° 0 mm 3 mps 700 mmHg 42%

6 Agosto, Viernes

Tiempo Temperatura Precipitaciones Viento Presión Humedad
00:00 +25°C° 0 mm 3 mps 700 mmHg 42%
01:00 +24°C° 0 mm 3 mps 700 mmHg 46%
02:00 +23°C° 0 mm 2 mps 700 mmHg 51%
03:00 +20°C° 0 mm 2 mps 700 mmHg 55%
04:00 +20°C° 0 mm 2 mps 700 mmHg 58%
05:00 +21°C° 0 mm 1 mps 700 mmHg 60%
06:00 +21°C° 0 mm 1 mps 700 mmHg 63%
07:00 +22°C° 0 mm 1 mps 700 mmHg 57%
08:00 +24°C° 0 mm 2 mps 700 mmHg 51%
09:00 +26°C° 0 mm 2 mps 701 mmHg 45%
10:00 +27°C° 0 mm 3 mps 700 mmHg 40%
11:00 +29°C° 0 mm 4 mps 700 mmHg 36%
12:00 +32°C° 0 mm 4 mps 700 mmHg 31%
13:00 +33°C° 0 mm 5 mps 699 mmHg 30%
14:00 +34°C° 0 mm 5 mps 699 mmHg 28%
15:00 +35°C° 0 mm 6 mps 698 mmHg 26%
16:00 +34°C° 0 mm 6 mps 698 mmHg 30%
17:00 +33°C° 0 mm 6 mps 697 mmHg 34%
18:00 +32°C° 0 mm 6 mps 697 mmHg 38%
19:00 +29°C° 0 mm 4 mps 697 mmHg 44%
20:00 +28°C° 0 mm 3 mps 697 mmHg 51%
21:00 +26°C° 0 mm 2 mps 697 mmHg 57%
22:00 +25°C° 0 mm 2 mps 697 mmHg 56%
23:00 +25°C° 0 mm 3 mps 697 mmHg 54%

7 Agosto, Sábado

Tiempo Temperatura Precipitaciones Viento Presión Humedad
00:00 +24°C° 0 mm 3 mps 697 mmHg 52%
01:00 +22°C° 0 mm 3 mps 697 mmHg 57%
02:00 +21°C° 0 mm 3 mps 697 mmHg 62%
03:00 +20°C° 0 mm 3 mps 697 mmHg 66%
04:00 +19°C° 0 mm 3 mps 697 mmHg 67%
05:00 +19°C° 0 mm 3 mps 697 mmHg 67%
06:00 +18°C° 0 mm 3 mps 697 mmHg 67%
07:00 +20°C° 0 mm 3 mps 698 mmHg 61%
08:00 +21°C° 0 mm 4 mps 698 mmHg 55%
09:00 +22°C° 0 mm 5 mps 699 mmHg 49%
10:00 +25°C° 0 mm 5 mps 699 mmHg 44%
11:00 +26°C° 0 mm 5 mps 699 mmHg 38%
12:00 +27°C° 0 mm 6 mps 699 mmHg 33%
13:00 +28°C° 0 mm 6 mps 699 mmHg 33%
14:00 +28°C° 0 mm 7 mps 699 mmHg 32%
15:00 +28°C° 0 mm 7 mps 700 mmHg 31%
16:00 +27°C° 0 mm 7 mps 700 mmHg 33%
17:00 +26°C° 0 mm 7 mps 700 mmHg 34%
18:00 +26°C° 0 mm 7 mps 701 mmHg 36%
19:00 +23°C° 0 mm 6 mps 701 mmHg 40%
20:00 +21°C° 0 mm 5 mps 702 mmHg 45%
21:00 +19°C° 0 mm 4 mps 703 mmHg 49%
22:00 +19°C° 0 mm 4 mps 703 mmHg 51%
23:00 +18°C° 0 mm 4 mps 703 mmHg 52%

8 Agosto, Domingo

Tiempo Temperatura Precipitaciones Viento Presión Humedad
00:00 +17°C° 0 mm 4 mps 703 mmHg 53%
01:00 +17°C° 0 mm 3 mps 703 mmHg 53%
02:00 +17°C° 0 mm 3 mps 703 mmHg 53%
03:00 +17°C° 0 mm 2 mps 703 mmHg 52%
04:00 +17°C° 0 mm 2 mps 704 mmHg 52%
05:00 +17°C° 0 mm 2 mps 704 mmHg 52%
06:00 +18°C° 0 mm 1 mps 704 mmHg 52%
07:00 +18°C° 0 mm 2 mps 705 mmHg 49%
08:00 +20°C° 0 mm 2 mps 705 mmHg 46%
09:00 +21°C° 0 mm 3 mps 705 mmHg 42%
10:00 +22°C° 0 mm 3 mps 705 mmHg 39%
11:00 +25°C° 0 mm 2 mps 706 mmHg 36%
12:00 +27°C° 0 mm 2 mps 706 mmHg 33%
13:00 +27°C° 0 mm 3 mps 706 mmHg 32%
14:00 +28°C° 0 mm 3 mps 705 mmHg 32%
15:00 +29°C° 0 mm 4 mps 705 mmHg 32%
16:00 +29°C° 0 mm 4 mps 705 mmHg 33%
17:00 +28°C° 0 mm 4 mps 705 mmHg 34%
18:00 +28°C° 0 mm 4 mps 705 mmHg 36%
19:00 +27°C° 0 mm 3 mps 706 mmHg 40%
20:00 +26°C° 0 mm 2 mps 706 mmHg 44%
21:00 +25°C° 0 mm 1 mps 706 mmHg 47%
22:00 +24°C° 0 mm 1 mps 706 mmHg 50%
23:00 +24°C° 0 mm 1 mps 706 mmHg 52%
Mostrar más

Necesitamos Su Consentimiento

Meteoprog y nuestros Proveedores de Servicios pueden almacenar y acceder a sus datos personales como cookies, identificadores de dispositivo u otras tecnologías similares de su dispositivo y procesar dichos datos para personalizar contenido y anuncios, además de ofrecer funciones de redes sociales y analizar el tráfico.

  • Almacenar y/o acceder a información en su dispositivo

    Se puede almacenar o acceder a cookies, identificadores de dispositivo u otra información de su dispositivo para los fines anteriormente indicados.

  • Anuncios y contenido personalizados, medición de anuncios y contenido, percepciones del público, y desarrollo de productos

    Los anuncios y el contenido pueden personalizarse en base a su perfil. Se pueden añadir más datos para personalizar mejor los anuncios y contenidos. Se puede medir el rendimiento de los anuncios y contenidos. Se puede obtener la percepción sobre el público que ha visto los anuncios y contenidos. Dichos datos pueden usarse para desarrollar o mejorar la experiencia del usuario, sistemas y software.

Al hacer clic en ‘Estoy De Acuerdo’ usted permitirá el uso de las cookies, identificadores de dispositivo, balizas web u otras tecnologías similares indicadas. Su configuración puede cambiarse desde el navegador de su dispositivo.

Para ciertos fines, los intereses legítimos pueden ser considerados por encima del consentimiento. Puede leer más sobre ello en nuestra Política de Privacidad y Cookies.